| time (UTC) | temp F | wind direction | speed knots | gust knots | rain 1hr in | rain 24hr in | rain mn in | humidity % | barometer mb |
| 20260506103538 | 61 | 267 | 1.7 | 7.8 | 0.00 | 0.00 | 0.00 | 39 | 1021.2 |
| 20260506103044 | 61 | 282 | 1.7 | 12.2 | 0.00 | 0.00 | 0.00 | 38 | 1021.2 |
| 20260506102538 | 61 | 223 | 3.5 | 12.2 | 0.00 | 0.00 | 0.00 | 38 | 1021.2 |
| 20260506102037 | 61 | 158 | 1.7 | 6.1 | 0.00 | 0.00 | 0.00 | 38 | 1021.2 |
| 20260506101549 | 61 | 232 | 2.6 | 7.0 | 0.00 | 0.00 | 0.00 | 39 | 1021.2 |
| 20260506101038 | 61 | 0 | 2.6 | 7.0 | 0.00 | 0.00 | 0.00 | 39 | 1021.2 |
| 20260506100539 | 61 | 261 | 2.6 | 7.0 | 0.00 | 0.00 | 0.00 | 38 | 1021.2 |
| 20260506100047 | 61 | 225 | 1.7 | 7.0 | 0.00 | 0.00 | 0.00 | 39 | 1021.2 |
| 20260506095538 | 61 | 231 | 0.0 | 6.1 | 0.00 | 0.00 | 0.00 | 39 | 1021.2 |
| 20260506095040 | 61 | 251 | 2.6 | 6.1 | 0.00 | 0.00 | 0.00 | 39 | 1021.2 |
| 20260506094604 | 61 | 263 | 1.7 | 5.2 | 0.00 | 0.00 | 0.00 | 39 | 1021.2 |
| 20260506094042 | 61 | 258 | 1.7 | 3.5 | 0.00 | 0.00 | 0.00 | 39 | 1021.2 |
| 20260506093540 | 61 | 0 | 0.0 | 3.5 | 0.00 | 0.00 | 0.00 | 39 | 1021.2 |
| 20260506093052 | 61 | 247 | 0.0 | 3.5 | 0.00 | 0.00 | 0.00 | 39 | 1021.2 |
| 20260506092538 | 60 | 216 | 0.9 | 3.5 | 0.00 | 0.00 | 0.00 | 39 | 1021.2 |
| 20260506092038 | 60 | 0 | 0.0 | 0.0 | 0.00 | 0.00 | 0.00 | 41 | 1021.2 |
| 20260506091551 | 60 | 0 | 0.0 | 0.0 | 0.00 | 0.00 | 0.00 | 42 | 1021.2 |
| 20260506091041 | 59 | 0 | 0.0 | 0.0 | 0.00 | 0.00 | 0.00 | 42 | 1021.2 |
| 20260506090538 | 58 | 0 | 0.0 | 0.0 | 0.00 | 0.00 | 0.00 | 44 | 1021.2 |
| 20260506090049 | 56 | 0 | 0.0 | 0.0 | 0.00 | 0.00 | 0.00 | 47 | 1021.2 |
| 20260506085538 | 56 | 0 | 0.0 | 0.0 | 0.00 | 0.00 | 0.00 | 49 | 1021.2 |
| 20260506085039 | 56 | 0 | 0.0 | 0.0 | 0.00 | 0.00 | 0.00 | 49 | 1021.2 |
| 20260506084550 | 56 | 0 | 0.0 | 0.0 | 0.00 | 0.00 | 0.00 | 47 | 1021.2 |
| 20260506084039 | 57 | 0 | 0.0 | 0.0 | 0.00 | 0.00 | 0.00 | 47 | 1021.2 |
| 20260506083543 | 58 | 0 | 0.0 | 0.0 | 0.00 | 0.00 | 0.00 | 46 | 1021.2 |
| 20260506083051 | 59 | 0 | 0.0 | 0.0 | 0.00 | 0.00 | 0.00 | 45 | 1021.2 |
| 20260506082538 | 60 | 0 | 0.0 | 0.0 | 0.00 | 0.00 | 0.00 | 43 | 1021.2 |
| 20260506082038 | 61 | 0 | 0.0 | 0.0 | 0.00 | 0.00 | 0.00 | 42 | 1021.2 |
| 20260506081551 | 61 | 0 | 0.0 | 0.0 | 0.00 | 0.00 | 0.00 | 40 | 1021.2 |
| 20260506081040 | 61 | 0 | 0.0 | 0.0 | 0.00 | 0.00 | 0.00 | 40 | 1021.2 |
| 20260506080541 | 61 | 0 | 0.0 | 0.0 | 0.00 | 0.00 | 0.00 | 39 | 1021.2 |
| 20260506073047 | 63 | 222 | 0.9 | 8.7 | 0.00 | 0.00 | 0.00 | 37 | 1021.2 |
| 20260506072543 | 63 | 198 | 2.6 | 8.7 | 0.00 | 0.00 | 0.00 | 37 | 1021.2 |
| 20260506072039 | 62 | 176 | 0.9 | 4.3 | 0.00 | 0.00 | 0.00 | 38 | 1021.2 |
| 20260506071551 | 61 | 228 | 0.9 | 7.8 | 0.00 | 0.00 | 0.00 | 39 | 1021.2 |
| 20260506071038 | 60 | 0 | 0.9 | 7.8 | 0.00 | 0.00 | 0.00 | 41 | 1021.2 |
| 20260506070540 | 57 | 0 | 0.0 | 0.0 | 0.00 | 0.00 | 0.00 | 45 | 1021.2 |
| 20260506062041 | 59 | 0 | 0.0 | 0.0 | 0.00 | 0.00 | 0.00 | 40 | 1021.2 |
| 20260506061545 | 60 | 0 | 0.0 | 0.0 | 0.00 | 0.00 | 0.00 | 39 | 1021.2 |
| 20260506061038 | 61 | 0 | 0.0 | 0.0 | 0.00 | 0.00 | 0.00 | 39 | 1021.2 |
| 20260506060539 | 62 | 0 | 0.0 | 0.0 | 0.00 | 0.00 | 0.00 | 38 | 1021.2 |
| 20260506051037 | 66 | 205 | 2.6 | 7.8 | 0.00 | 0.00 | 0.00 | 29 | 1021.2 |
| 20260506050537 | 66 | 198 | 0.9 | 6.1 | 0.00 | 0.00 | 0.00 | 29 | 1021.2 |
| 20260506045043 | 66 | 197 | 2.6 | 7.0 | 0.00 | 0.00 | 0.00 | 28 | 1021.2 |
| 20260506044559 | 66 | 191 | 1.7 | 5.2 | 0.00 | 0.00 | 0.00 | 28 | 1021.2 |
| 20260506044038 | 66 | 278 | 1.7 | 10.4 | 0.00 | 0.00 | 0.00 | 28 | 1021.2 |
| 20260506043537 | 66 | 218 | 3.5 | 10.4 | 0.00 | 0.00 | 0.00 | 28 | 1021.2 |
| 20260506043044 | 66 | 213 | 1.7 | 6.1 | 0.00 | 0.00 | 0.00 | 28 | 1021.2 |
| 20260506042538 | 66 | 0 | 1.7 | 6.1 | 0.00 | 0.00 | 0.00 | 28 | 1021.2 |
| 20260506042041 | 66 | 231 | 3.5 | 6.1 | 0.00 | 0.00 | 0.00 | 28 | 1021.2 |
| 20260506041550 | 66 | 219 | 1.7 | 6.1 | 0.00 | 0.00 | 0.00 | 29 | 1021.2 |
| 20260506041037 | 65 | 218 | 3.5 | 8.7 | 0.00 | 0.00 | 0.00 | 29 | 1021.2 |
| 20260506040538 | 65 | 225 | 3.5 | 8.7 | 0.00 | 0.00 | 0.00 | 29 | 1021.2 |
| 20260506040049 | 65 | 212 | 1.7 | 7.0 | 0.00 | 0.00 | 0.00 | 30 | 1021.2 |
| 20260506035544 | 64 | 179 | 2.6 | 7.0 | 0.00 | 0.00 | 0.00 | 30 | 1021.2 |
| 20260506035041 | 64 | 207 | 1.7 | 5.2 | 0.00 | 0.00 | 0.00 | 32 | 1021.2 |
| 20260506034551 | 62 | 196 | 1.7 | 5.2 | 0.00 | 0.00 | 0.00 | 33 | 1021.2 |
| 20260506034039 | 61 | 151 | 0.9 | 3.5 | 0.00 | 0.00 | 0.00 | 35 | 1021.2 |
| 20260506033537 | 59 | 0 | 0.0 | 3.5 | 0.00 | 0.00 | 0.00 | 39 | 1021.2 |
| 20260506033052 | 59 | 0 | 0.0 | 3.5 | 0.00 | 0.00 | 0.00 | 40 | 1021.2 |
| 20260506032542 | 58 | 0 | 0.0 | 0.0 | 0.00 | 0.00 | 0.00 | 40 | 1021.2 |
| 20260506032041 | 58 | 0 | 0.0 | 0.0 | 0.00 | 0.00 | 0.00 | 40 | 1021.2 |
| 20260506031557 | 59 | 0 | 0.0 | 0.0 | 0.00 | 0.00 | 0.00 | 40 | 1021.2 |
| 20260506031044 | 60 | 0 | 0.0 | 0.0 | 0.00 | 0.00 | 0.00 | 39 | 1021.2 |
| 20260506030541 | 60 | 0 | 0.0 | 0.0 | 0.00 | 0.00 | 0.00 | 37 | 1021.2 |
| 20260506030050 | 61 | 0 | 0.0 | 0.0 | 0.00 | 0.00 | 0.00 | 36 | 1021.2 |
| 20260506025538 | 62 | 0 | 0.0 | 0.0 | 0.00 | 0.00 | 0.00 | 34 | 1021.2 |
| 20260506025038 | 63 | 0 | 0.0 | 0.0 | 0.00 | 0.00 | 0.00 | 33 | 1021.2 |
| 20260506024558 | 65 | 0 | 0.0 | 0.9 | 0.00 | 0.00 | 0.00 | 32 | 1021.2 |
| 20260506024038 | 65 | 0 | 0.0 | 1.7 | 0.00 | 0.00 | 0.00 | 30 | 1021.2 |
| 20260506023538 | 66 | 0 | 0.0 | 4.3 | 0.00 | 0.00 | 0.00 | 30 | 1021.2 |
| 20260506023050 | 66 | 179 | 0.9 | 4.3 | 0.00 | 0.00 | 0.00 | 30 | 1021.2 |
| 20260506022540 | 66 | 0 | 0.0 | 1.7 | 0.00 | 0.00 | 0.00 | 29 | 1021.2 |
| 20260506022037 | 67 | 277 | 0.0 | 6.1 | 0.00 | 0.00 | 0.00 | 29 | 1021.2 |
| 20260506021553 | 67 | 284 | 0.0 | 6.1 | 0.00 | 0.00 | 0.00 | 28 | 1021.2 |
| 20260506021039 | 67 | 262 | 0.9 | 6.1 | 0.00 | 0.00 | 0.00 | 28 | 1021.2 |
| 20260506020538 | 67 | 0 | 0.0 | 4.3 | 0.00 | 0.00 | 0.00 | 28 | 1021.2 |
| 20260506020045 | 67 | 249 | 0.9 | 3.5 | 0.00 | 0.00 | 0.00 | 28 | 1021.2 |
| 20260506015544 | 67 | 0 | 0.0 | 3.5 | 0.00 | 0.00 | 0.00 | 28 | 1021.2 |
| 20260506015038 | 68 | 0 | 0.9 | 5.2 | 0.00 | 0.00 | 0.00 | 28 | 1021.2 |
| 20260506014551 | 68 | 241 | 0.9 | 5.2 | 0.00 | 0.00 | 0.00 | 28 | 1021.2 |
| 20260506014041 | 68 | 173 | 0.0 | 3.5 | 0.00 | 0.00 | 0.00 | 29 | 1021.2 |
| 20260506013538 | 68 | 234 | 1.7 | 3.5 | 0.00 | 0.00 | 0.00 | 29 | 1021.2 |
| 20260506013052 | 68 | 0 | 0.0 | 3.5 | 0.00 | 0.00 | 0.00 | 29 | 1021.2 |
| 20260506012539 | 68 | 291 | 0.9 | 4.3 | 0.00 | 0.00 | 0.00 | 29 | 1021.2 |
| 20260506012041 | 68 | 236 | 0.0 | 4.3 | 0.00 | 0.00 | 0.00 | 30 | 1021.2 |
| 20260506011550 | 68 | 0 | 0.0 | 6.1 | 0.00 | 0.00 | 0.00 | 30 | 1021.2 |
| 20260506011038 | 69 | 0 | 1.7 | 6.1 | 0.00 | 0.00 | 0.00 | 30 | 1021.2 |
| 20260506010541 | 69 | 177 | 0.0 | 7.0 | 0.00 | 0.00 | 0.00 | 30 | 1021.2 |
| 20260506010043 | 69 | 242 | 1.7 | 7.0 | 0.00 | 0.00 | 0.00 | 31 | 1021.2 |
| 20260506005537 | 69 | 221 | 1.7 | 9.6 | 0.00 | 0.00 | 0.00 | 30 | 1021.2 |
| 20260506005038 | 69 | 0 | 2.6 | 9.6 | 0.00 | 0.00 | 0.00 | 30 | 1021.2 |
| 20260506004546 | 69 | 0 | 1.7 | 7.8 | 0.00 | 0.00 | 0.00 | 30 | 1021.2 |
| 20260506004038 | 69 | 217 | 2.6 | 7.8 | 0.00 | 0.00 | 0.00 | 30 | 1021.2 |
| 20260506003537 | 69 | 169 | 1.7 | 4.3 | 0.00 | 0.00 | 0.00 | 30 | 1021.2 |
| 20260506003044 | 69 | 219 | 1.7 | 5.2 | 0.00 | 0.00 | 0.00 | 30 | 1021.2 |
| 20260506002541 | 69 | 0 | 1.7 | 7.0 | 0.00 | 0.00 | 0.00 | 30 | 1021.2 |
| 20260506002039 | 69 | 201 | 1.7 | 7.0 | 0.00 | 0.00 | 0.00 | 30 | 1021.2 |
| 20260506001546 | 69 | 238 | 0.9 | 5.2 | 0.00 | 0.00 | 0.00 | 30 | 1021.2 |
| 20260506001038 | 69 | 229 | 1.7 | 5.2 | 0.00 | 0.00 | 0.00 | 30 | 1021.2 |
| 20260506000537 | 69 | 226 | 1.7 | 5.2 | 0.00 | 0.00 | 0.00 | 30 | 1021.2 |
| 20260506000048 | 69 | 210 | 1.7 | 7.0 | 0.00 | 0.00 | 0.00 | 29 | 1021.2 |
| 20260505235540 | 69 | 190 | 0.9 | 7.8 | 0.00 | 0.00 | 0.00 | 29 | 1021.2 |
| 20260505235038 | 69 | 200 | 3.5 | 8.7 | 0.00 | 0.00 | 0.00 | 29 | 1021.2 |
| 20260505234551 | 70 | 249 | 2.6 | 8.7 | 0.00 | 0.00 | 0.00 | 29 | 1021.2 |
| 20260505234040 | 70 | 243 | 1.7 | 7.8 | 0.00 | 0.00 | 0.00 | 29 | 1021.2 |
| 20260505233537 | 70 | 174 | 4.3 | 10.4 | 0.00 | 0.00 | 0.00 | 29 | 1021.2 |
| 20260505233045 | 70 | 232 | 4.3 | 10.4 | 0.00 | 0.00 | 0.00 | 29 | 1021.2 |
| 20260505232538 | 70 | 210 | 3.5 | 8.7 | 0.00 | 0.00 | 0.00 | 28 | 1021.2 |
| 20260505232039 | 70 | 249 | 2.6 | 8.7 | 0.00 | 0.00 | 0.00 | 28 | 1021.2 |
| 20260505231601 | 70 | 255 | 4.3 | 10.4 | 0.00 | 0.00 | 0.00 | 28 | 1021.2 |
| 20260505231037 | 70 | 233 | 5.2 | 10.4 | 0.00 | 0.00 | 0.00 | 28 | 1021.2 |
| 20260505230537 | 70 | 233 | 2.6 | 10.4 | 0.00 | 0.00 | 0.00 | 28 | 1021.2 |
| 20260505230055 | 70 | 238 | 3.5 | 13.9 | 0.00 | 0.00 | 0.00 | 28 | 1021.2 |
| 20260505225537 | 70 | 242 | 6.1 | 13.9 | 0.00 | 0.00 | 0.00 | 27 | 1021.2 |
| 20260505225041 | 70 | 250 | 3.5 | 13.0 | 0.00 | 0.00 | 0.00 | 27 | 1021.2 |
| 20260505224552 | 70 | 229 | 3.5 | 13.0 | 0.00 | 0.00 | 0.00 | 27 | 1021.2 |
| 20260505224038 | 70 | 221 | 4.3 | 13.0 | 0.00 | 0.00 | 0.00 | 27 | 1021.2 |
| 20260505223538 | 70 | 224 | 4.3 | 13.0 | 0.00 | 0.00 | 0.00 | 27 | 1021.2 |
| 20260505223056 | 70 | 227 | 5.2 | 14.8 | 0.00 | 0.00 | 0.00 | 27 | 1021.2 |
| 20260505222540 | 70 | 196 | 6.1 | 14.8 | 0.00 | 0.00 | 0.00 | 27 | 1021.2 |
| 20260505222039 | 70 | 238 | 5.2 | 12.2 | 0.00 | 0.00 | 0.00 | 27 | 1021.2 |
| 20260505221551 | 70 | 199 | 5.2 | 10.4 | 0.00 | 0.00 | 0.00 | 27 | 1021.2 |
| 20260505221041 | 70 | 196 | 3.5 | 8.7 | 0.00 | 0.00 | 0.00 | 27 | 1021.2 |
| 20260505220539 | 70 | 243 | 3.5 | 12.2 | 0.00 | 0.00 | 0.00 | 27 | 1021.2 |
| 20260505220048 | 70 | 232 | 6.1 | 14.8 | 0.00 | 0.00 | 0.00 | 27 | 1021.2 |
| 20260505215539 | 70 | 212 | 5.2 | 14.8 | 0.00 | 0.00 | 0.00 | 27 | 1021.2 |
| 20260505215040 | 70 | 214 | 4.3 | 16.5 | 0.00 | 0.00 | 0.00 | 27 | 1021.2 |
| 20260505214545 | 70 | 219 | 6.1 | 16.5 | 0.00 | 0.00 | 0.00 | 27 | 1021.2 |
| 20260505214039 | 71 | 219 | 5.2 | 12.2 | 0.00 | 0.00 | 0.00 | 25 | 1021.2 |
| 20260505213539 | 71 | 184 | 3.5 | 11.3 | 0.00 | 0.00 | 0.00 | 26 | 1021.2 |
| 20260505213056 | 71 | 221 | 4.3 | 10.4 | 0.00 | 0.00 | 0.00 | 27 | 1021.2 |
| 20260505212540 | 71 | 215 | 5.2 | 10.4 | 0.00 | 0.00 | 0.00 | 27 | 1021.2 |
| 20260505212040 | 71 | 249 | 2.6 | 13.0 | 0.00 | 0.00 | 0.00 | 26 | 1021.2 |
| 20260505211548 | 71 | 195 | 5.2 | 13.0 | 0.00 | 0.00 | 0.00 | 27 | 1021.2 |
| 20260505211043 | 71 | 251 | 3.5 | 10.4 | 0.00 | 0.00 | 0.00 | 27 | 1021.2 |
| 20260505210539 | 71 | 0 | 3.5 | 13.9 | 0.00 | 0.00 | 0.00 | 28 | 1021.2 |
| 20260505210047 | 71 | 240 | 5.2 | 13.9 | 0.00 | 0.00 | 0.00 | 28 | 1021.2 |
| 20260505205540 | 71 | 263 | 6.1 | 15.6 | 0.00 | 0.00 | 0.00 | 28 | 1021.2 |
| 20260505205041 | 72 | 267 | 5.2 | 18.2 | 0.00 | 0.00 | 0.00 | 27 | 1021.2 |
| 20260505204555 | 72 | 210 | 7.0 | 18.2 | 0.00 | 0.00 | 0.00 | 28 | 1021.2 |
| 20260505204039 | 72 | 193 | 7.0 | 14.8 | 0.00 | 0.00 | 0.00 | 26 | 1021.2 |
| 20260505203539 | 73 | 246 | 6.1 | 14.8 | 0.00 | 0.00 | 0.00 | 27 | 1021.2 |
| 20260505203100 | 73 | 229 | 5.2 | 13.9 | 0.00 | 0.00 | 0.00 | 29 | 1021.2 |
| 20260505202540 | 73 | 187 | 5.2 | 13.9 | 0.00 | 0.00 | 0.00 | 27 | 1021.2 |
| 20260505202041 | 73 | 280 | 7.0 | 14.8 | 0.00 | 0.00 | 0.00 | 27 | 1021.2 |
| 20260505201548 | 73 | 216 | 7.0 | 14.8 | 0.00 | 0.00 | 0.00 | 26 | 1021.2 |
| 20260505201040 | 72 | 150 | 7.0 | 13.9 | 0.00 | 0.00 | 0.00 | 28 | 1021.2 |
| 20260505200540 | 72 | 200 | 5.2 | 13.9 | 0.00 | 0.00 | 0.00 | 28 | 1021.2 |
| 20260505200049 | 72 | 214 | 7.0 | 13.0 | 0.00 | 0.00 | 0.00 | 28 | 1021.2 |
| 20260505195544 | 71 | 260 | 6.1 | 13.9 | 0.00 | 0.00 | 0.00 | 29 | 1021.2 |
| 20260505195040 | 71 | 216 | 7.0 | 14.8 | 0.00 | 0.00 | 0.00 | 29 | 1021.2 |
| 20260505194546 | 71 | 223 | 7.0 | 14.8 | 0.00 | 0.00 | 0.00 | 30 | 1021.2 |
| 20260505194040 | 71 | 209 | 8.7 | 14.8 | 0.00 | 0.00 | 0.00 | 28 | 1021.2 |
| 20260505193541 | 72 | 209 | 7.0 | 15.6 | 0.00 | 0.00 | 0.00 | 28 | 1021.2 |
| 20260505193047 | 73 | 235 | 5.2 | 15.6 | 0.00 | 0.00 | 0.00 | 29 | 1021.2 |
| 20260505192541 | 72 | 248 | 4.3 | 12.2 | 0.00 | 0.00 | 0.00 | 30 | 1021.2 |
| 20260505192040 | 72 | 250 | 6.1 | 13.0 | 0.00 | 0.00 | 0.00 | 30 | 1021.2 |
| 20260505191608 | 72 | 262 | 6.1 | 13.0 | 0.00 | 0.00 | 0.00 | 30 | 1021.2 |
| 20260505191040 | 72 | 210 | 6.1 | 12.2 | 0.00 | 0.00 | 0.00 | 30 | 1021.2 |
| 20260505190542 | 72 | 232 | 5.2 | 12.2 | 0.00 | 0.00 | 0.00 | 28 | 1021.2 |
| 20260505190044 | 72 | 228 | 5.2 | 13.0 | 0.00 | 0.00 | 0.00 | 30 | 1021.2 |
| 20260505185540 | 72 | 259 | 4.3 | 13.0 | 0.00 | 0.00 | 0.00 | 30 | 1021.2 |
| 20260505185041 | 72 | 194 | 5.2 | 13.0 | 0.00 | 0.00 | 0.00 | 30 | 1021.2 |
| 20260505184546 | 72 | 238 | 7.0 | 15.6 | 0.00 | 0.00 | 0.00 | 29 | 1021.2 |
| 20260505184041 | 72 | 8 | 3.5 | 15.6 | 0.00 | 0.00 | 0.00 | 31 | 1021.2 |
| 20260505183539 | 72 | 212 | 4.3 | 15.6 | 0.00 | 0.00 | 0.00 | 31 | 1021.2 |
| 20260505183043 | 72 | 172 | 2.6 | 11.3 | 0.00 | 0.00 | 0.00 | 32 | 1021.2 |
| 20260505182542 | 71 | 258 | 6.1 | 11.3 | 0.00 | 0.00 | 0.00 | 32 | 1021.2 |
| 20260505182043 | 71 | 308 | 5.2 | 11.3 | 0.00 | 0.00 | 0.00 | 32 | 1021.2 |
| 20260505181549 | 71 | 225 | 6.1 | 11.3 | 0.00 | 0.00 | 0.00 | 31 | 1021.2 |
| 20260505181040 | 71 | 237 | 6.1 | 13.0 | 0.00 | 0.00 | 0.00 | 31 | 1021.2 |
| 20260505180539 | 70 | 210 | 4.3 | 13.0 | 0.00 | 0.00 | 0.00 | 32 | 1021.2 |
| 20260505175539 | 71 | 257 | 3.5 | 10.4 | 0.00 | 0.00 | 0.00 | 31 | 1021.2 |
| 20260505175039 | 71 | 223 | 6.1 | 10.4 | 0.00 | 0.00 | 0.00 | 32 | 1021.2 |
| 20260505174553 | 71 | 204 | 4.3 | 10.4 | 0.00 | 0.00 | 0.00 | 32 | 1021.2 |
| 20260505174041 | 70 | 264 | 5.2 | 10.4 | 0.00 | 0.00 | 0.00 | 31 | 1021.2 |
| 20260505173539 | 71 | 218 | 1.7 | 8.7 | 0.00 | 0.00 | 0.00 | 32 | 1021.2 |
| 20260505173047 | 70 | 115 | 2.6 | 8.7 | 0.00 | 0.00 | 0.00 | 33 | 1021.2 |
| 20260505172539 | 70 | 281 | 3.5 | 9.6 | 0.00 | 0.00 | 0.00 | 33 | 1021.2 |
| 20260505172040 | 70 | 322 | 3.5 | 9.6 | 0.00 | 0.00 | 0.00 | 34 | 1021.2 |
| 20260505171552 | 70 | 359 | 4.3 | 10.4 | 0.00 | 0.00 | 0.00 | 35 | 1021.2 |
| 20260505171040 | 69 | 145 | 3.5 | 10.4 | 0.00 | 0.00 | 0.00 | 34 | 1021.2 |
| 20260505170541 | 69 | 311 | 4.3 | 9.6 | 0.00 | 0.00 | 0.00 | 34 | 1021.2 |
| 20260505170052 | 69 | 153 | 1.7 | 12.2 | 0.00 | 0.00 | 0.00 | 35 | 1021.2 |
| 20260505165540 | 69 | 284 | 4.3 | 12.2 | 0.00 | 0.00 | 0.00 | 35 | 1021.2 |
| 20260505165040 | 68 | 295 | 2.6 | 9.6 | 0.00 | 0.00 | 0.00 | 35 | 1021.2 |
| 20260505164552 | 68 | 0 | 4.3 | 12.2 | 0.00 | 0.00 | 0.00 | 34 | 1021.2 |
| 20260505164041 | 67 | 0 | 2.6 | 12.2 | 0.00 | 0.00 | 0.00 | 36 | 1021.2 |
| 20260505163540 | 67 | 12 | 2.6 | 12.2 | 0.00 | 0.00 | 0.00 | 36 | 1021.2 |
| 20260505163049 | 67 | 240 | 3.5 | 12.2 | 0.00 | 0.00 | 0.00 | 35 | 1021.2 |
| 20260505162539 | 68 | 313 | 4.3 | 12.2 | 0.00 | 0.00 | 0.00 | 34 | 1021.2 |
| 20260505162039 | 68 | 286 | 2.6 | 9.6 | 0.00 | 0.00 | 0.00 | 36 | 1021.2 |
| 20260505161553 | 67 | 214 | 2.6 | 8.7 | 0.00 | 0.00 | 0.00 | 35 | 1021.2 |
| 20260505161040 | 67 | 290 | 3.5 | 8.7 | 0.00 | 0.00 | 0.00 | 35 | 1021.2 |
| 20260505160540 | 67 | 249 | 2.6 | 10.4 | 0.00 | 0.00 | 0.00 | 35 | 1021.2 |
| 20260505153054 | 65 | 206 | 1.7 | 12.2 | 0.00 | 0.00 | 0.00 | 37 | 1021.2 |
| 20260505152539 | 64 | 333 | 5.2 | 12.2 | 0.00 | 0.00 | 0.00 | 37 | 1021.2 |
| 20260505152042 | 64 | 252 | 2.6 | 8.7 | 0.00 | 0.00 | 0.00 | 36 | 1021.2 |
| 20260505151550 | 65 | 210 | 3.5 | 8.7 | 0.00 | 0.00 | 0.00 | 36 | 1021.2 |
| 20260505151043 | 65 | 141 | 1.7 | 7.8 | 0.00 | 0.00 | 0.00 | 36 | 1021.2 |
| 20260505150540 | 65 | 155 | 3.5 | 10.4 | 0.00 | 0.00 | 0.00 | 36 | 1021.2 |
| 20260505140539 | 62 | 281 | 1.7 | 7.8 | 0.00 | 0.00 | 0.00 | 38 | 1021.2 |
| 20260505125039 | 54 | 231 | 0.0 | 0.0 | 0.00 | 0.00 | 0.00 | 47 | 1021.2 |
| 20260505124546 | 54 | 0 | 0.0 | 2.6 | 0.00 | 0.00 | 0.00 | 49 | 1021.2 |
| 20260505124037 | 53 | 0 | 0.0 | 2.6 | 0.00 | 0.00 | 0.00 | 49 | 1021.2 |
| 20260505123538 | 50 | 0 | 0.0 | 2.6 | 0.00 | 0.00 | 0.00 | 54 | 1021.2 |
| 20260505123042 | 49 | 0 | 0.0 | 0.0 | 0.00 | 0.00 | 0.00 | 58 | 1021.2 |
| 20260505122538 | 49 | 0 | 0.0 | 0.0 | 0.00 | 0.00 | 0.00 | 58 | 1021.2 |
| 20260505122039 | 49 | 0 | 0.0 | 0.0 | 0.00 | 0.00 | 0.00 | 59 | 1021.2 |
| 20260505121549 | 49 | 0 | 0.0 | 0.0 | 0.00 | 0.00 | 0.00 | 58 | 1021.2 |
| 20260505121040 | 50 | 0 | 0.0 | 0.0 | 0.00 | 0.00 | 0.00 | 57 | 1021.2 |
| 20260505120540 | 50 | 0 | 0.0 | 0.0 | 0.00 | 0.00 | 0.00 | 55 | 1021.2 |
| 20260505120051 | 51 | 0 | 0.0 | 0.0 | 0.00 | 0.00 | 0.00 | 54 | 1021.2 |
| 20260505115539 | 51 | 0 | 0.0 | 0.0 | 0.00 | 0.00 | 0.00 | 54 | 1021.2 |
| 20260505115039 | 52 | 0 | 0.0 | 0.0 | 0.00 | 0.00 | 0.00 | 53 | 1021.2 |
| 20260505114544 | 53 | 0 | 0.0 | 0.0 | 0.00 | 0.00 | 0.00 | 51 | 1021.2 |
| 20260505114038 | 54 | 0 | 0.0 | 0.9 | 0.00 | 0.00 | 0.00 | 48 | 1021.2 |
| 20260505113538 | 56 | 0 | 0.0 | 2.6 | 0.00 | 0.00 | 0.00 | 47 | 1021.2 |
| 20260505113052 | 57 | 0 | 0.0 | 2.6 | 0.00 | 0.00 | 0.00 | 45 | 1021.2 |
| 20260505112538 | 56 | 0 | 0.0 | 0.0 | 0.00 | 0.00 | 0.00 | 46 | 1021.2 |
| 20260505112040 | 57 | 0 | 0.0 | 0.0 | 0.00 | 0.00 | 0.00 | 45 | 1021.2 |
| 20260505111548 | 58 | 0 | 0.0 | 0.0 | 0.00 | 0.00 | 0.00 | 42 | 1021.2 |
| 20260505111039 | 59 | 0 | 0.0 | 0.9 | 0.00 | 0.00 | 0.00 | 40 | 1021.2 |
| 20260505110540 | 60 | 0 | 0.0 | 1.7 | 0.00 | 0.00 | 0.00 | 40 | 1021.2 |